Location: Newark
(44.9333°N, 0.5667°E)
Time: 20:24:12
(UTC+00:00)

N. Korean satellite - Pass Details

Date: 23 December 2019
Orbit: 454 x 507 km, 97.2° (Epoch: 28 January)

Event Time Altitude Azimuth Distance (km) Brightness Sun altitude
Rises 05:43:19 0° 14° (NNE) 2,501 10.2 -18.6°
Reaches altitude 10° 05:45:23 10° 17° (NNE) 1,614 9.2 -18.2°
Maximum altitude 05:48:50 67° 101° (E) 501 6.8 -17.6°
Drops below altitude 10° 05:52:13 10° 185° (S) 1,588 9.3 -17.0°
Sets 05:54:14 0° 188° (S) 2,455 10.3 -16.7°
